ANTARES DEB

Last updated on Feb. 19, 2020, 12:02 a.m. UTC

1 45176U 20011B   20047.76166641 -.00003896  12318-4  00000-0 0  9993
2 45176  51.6205 229.3912 0033290  21.1916  54.0592 16.36693095   158

Satellite is not in orbit.